Regional Weather Roundup
Issued by NWS Newport/Morehead, NC

Current Version | Previous Version | Graphics & Text | Print | Product List | Glossary On
Versions: 1 2 3 4 5 6 7 8 9 10 11 12 13 14 15 16 17 18 19 20 21 22 23 24 25 26 27 28 29 30 31 32 33 34 35 36 37 38 39 40 41 42 43 44 45 46 47 48 49 50
012 ASUS42 KMHX 091024 RWRMHX WEATHER ROUNDUP FOR EASTERN NORTH CAROLINA NATIONAL WEATHER SERVICE NEWPORT/MOREHEAD CITY NC 500 AM EST FRI DEC 09 2016 NOTE: "FAIR" INDICATES FEW OR NO CLOUDS BELOW 12,000 FEET WITH NO SIGNIFICANT WEATHER AND/OR OBSTRUCTIONS TO VISIBILITY NCZ015>017-031-032-045>047-102-103-091100- NORTH COAST CITY SKY/WX TMP DP RH WIND PRES REMARKS EDENTON CLEAR 35 24 64 CALM 30.26R ELIZABETH CITY CLEAR 31 22 69 NW6 30.24R KITTY HAWK SUNNY 38 26 62 NW8 30.21R MANTEO CLEAR 38 21 50 N12G18 30.24R $$ NCZ045>047-081-094-103-104-091100- CENTRAL COAST CITY SKY/WX TMP DP RH WIND PRES REMARKS FRISCO CLEAR 42 27 55 VRB7 30.21R $$ NCZ095-097-098-100-101-091100- SOUTHERN COAST CITY SKY/WX TMP DP RH WIND PRES REMARKS BEAUFORT CLEAR 38 24 57 N13 30.25R CEDAR ISLAND NOT AVBL JACKSONVILLE PTCLDY 35 20 54 NW9 30.27R PINEY ISLAND SUNNY N/A N/A N/A N18G26 30.24R WILMINGTON CLEAR 37 21 52 N12 30.26F $$ NCZ011>013-027>030-043-044-078>080-089-090>093-098-091100- COASTAL PLAIN CITY SKY/WX TMP DP RH WIND PRES REMARKS AHOSKIE CLEAR 31 18 60 CALM 30.27S CLINTON CLEAR 34 23 63 NW3 30.31R ELIZABETHTOWN CLEAR 34 22 62 CALM 30.30R GOLDSBORO CLEAR 34 16 47 NW3 30.27R GREENVILLE CLEAR 34 19 55 CALM 30.29R HAVELOCK CLEAR 39 20 46 N16 30.26R KENANSVILLE PTCLDY 34 19 55 NW5 30.30R KINSTON CLEAR 32 20 59 CALM 30.30R NEW BERN CLEAR 36 19 50 N9 30.28R RICHLANDS CLEAR 30 25 81 CALM 30.29R ROCKY MOUNT PTCLDY 33 18 53 NW7 30.28R WASHINGTON PTCLDY 31 21 65 CALM 30.28R WHITEVILLE CLEAR 35 23 60 CALM 30.29R $$ AMZ130-135-150-152-154-156-158-170-250-252-270-ANZ085-086-088-633-658-670-091100- MARINE OBSERVATIONS STATION/POSITION TIME TEMP WIND PRES WAVE SWELL AIR SEA DIR/SP/G HT/PER HT/PER (UTC) (F) (DEG/KT/KT) (MB) (FT/S) (FT/S) CHESAPEAKE LIGHT NOT AVBL 64 E VA BEACH 0950 42 58 340/ 21/ 29 1021.5 8/ 7 DUCK 1000 39 53 330/ 19/ 23 1022.6 2 E DUCK NOT AVBL OREGON INLET 1000 53 320/ 13/ 18 1023.1 13E OREGON INLT NOT AVBL HATTERAS CG 1000 43 56 330/ 18/ 21 1022.7 DIAMOND BUOY 0950 47 75 350/ 21/ 27 1022.2 7/ 5 2/15 CAPE LOOKOUT 1000 41 340/ 21/ 25 1023.4 BEAUFORT LAB 1000 40 54 350/ 10/ 16 1023.2 30 SE NEW RVR IN 1008 47 70 360/ 23/ 29 1023.8 30 SE NEW RVR IN NOT AVBL 27 SE WRIGHTSVLE 1008 47 69 350/ 19/ 33 1023.7 5 SE WRIGHTSVLE 1008 40 61 360/ 17/ 35 1024.2 225 S CAPE HAT 0950 64 74 350/ 21/ 25 1018.9 7/ 7 41 SE CHARLESTON 0950 53 73 360/ 17/ 23 1023.6 4/ 6 2/12 $$

USA.gov is the U.S. government's official web portal to all federal, state and local government web resources and services.